Weather History for Nantucket, MA

Change the Weather History Date:

Wednesday, September 4, 2013

  Actual Average Record
Temperature  
Mean Temperature 68 °F -  
Max Temperature 73 °F 74 °F 80 °F (1973)
Min Temperature 63 °F 58 °F 49 °F (1949)
Cooling Degree Days 3    
Growing Degree Days 18 (Base 50)    
Moisture  
Dew Point 62 °F    
Average Humidity 79    
Maximum Humidity 97    
Minimum Humidity 64    
Precipitation  
Precipitation 0.00 in - - ()
Sea Level Pressure  
Sea Level Pressure 29.89 in    
Wind  
Wind Speed 9 mph (West)    
Max Wind Speed 17 mph    
Max Gust Speed 23 mph    
Visibility 10 miles    
Events      
Averages and records for this station are not official NWS values.
T = Trace of Precipitation, MM = Missing Value Source: NWS Daily Summary

Daily Weather History Graph

Daily Weather History Graph

Search for Another Location

Airport:

Trip Planner

Search our weather history database for the weather conditions in past years. The results will help you decide how hot, cold, wet, or windy it might be!

Date:

Astronomy

Sep. 04, 2013 Rise Set
Actual Time 6:09 AM EDT 7:07 PM EDT
Civil Twilight 5:41 AM EDT 7:35 PM EDT
Nautical Twilight 5:08 AM EDT 8:09 PM EDT
Astronomical Twilight 4:33 AM EDT 8:44 PM EDT
Moon 5:18 AM EDT (9/4) 6:25 PM EDT (9/4)
Length of Visible Light 13h 54m
Length of Day
12h 57m
Waning Crescent, 1% of the Moon is Illuminated
Sep 4
Waning Crescent
Sep 5
New
Sep 12
First Quarter
Sep 19
Full
Sep 26
Last Quarter

Hourly Weather History & Observations

Time (EDT) Temp. Dew Point Humidity Pressure Visibility Wind Dir Wind Speed Gust Speed Precip Events Conditions
12:17 AM 68.0 °F 66.2 °F 94% 29.81 in 10.0 mi NW 5.8 mph - N/A   Scattered Clouds
12:53 AM 66.9 °F 66.0 °F 97% 29.82 in 9.0 mi WNW 4.6 mph - N/A   Clear
1:53 AM 66.9 °F 64.9 °F 93% 29.81 in 9.0 mi WNW 6.9 mph - N/A   Clear
2:53 AM 66.0 °F 60.1 °F 81% 29.82 in 10.0 mi NW 10.4 mph - N/A   Clear
3:53 AM 66.0 °F 59.0 °F 78% 29.83 in 10.0 mi WNW 9.2 mph - N/A   Clear
4:53 AM 64.0 °F 57.9 °F 80% 29.84 in 10.0 mi West 6.9 mph - N/A   Clear
5:53 AM 63.0 °F 59.0 °F 87% 29.86 in 10.0 mi WNW 6.9 mph - N/A   Clear
6:53 AM 64.0 °F 59.0 °F 84% 29.87 in 10.0 mi WNW 6.9 mph - N/A   Clear
7:53 AM 66.9 °F 60.1 °F 79% 29.88 in 10.0 mi WNW 12.7 mph - N/A   Clear
8:53 AM 68.0 °F 59.0 °F 73% 29.91 in 10.0 mi NW 12.7 mph - N/A   Clear
9:53 AM 71.1 °F 60.1 °F 68% 29.91 in 10.0 mi NW 11.5 mph - N/A   Clear
10:53 AM 73.0 °F 61.0 °F 66% 29.91 in 10.0 mi WNW 9.2 mph - N/A   Clear
11:53 AM 73.0 °F 60.1 °F 64% 29.91 in 10.0 mi WNW 9.2 mph - N/A   Clear
12:53 PM 72.0 °F 62.1 °F 71% 29.91 in 10.0 mi WSW 11.5 mph - N/A   Clear
1:53 PM 73.0 °F 62.1 °F 68% 29.91 in 10.0 mi WSW 13.8 mph - N/A   Clear
2:53 PM 73.0 °F 61.0 °F 66% 29.91 in 10.0 mi WSW 16.1 mph - N/A   Clear
3:53 PM 72.0 °F 62.1 °F 71% 29.91 in 10.0 mi WSW 17.3 mph - N/A   Clear
4:53 PM 72.0 °F 61.0 °F 68% 29.91 in 10.0 mi WSW 13.8 mph 23.0 mph N/A   Clear
5:53 PM 70.0 °F 62.1 °F 76% 29.91 in 10.0 mi WSW 15.0 mph - N/A   Clear
6:53 PM 68.0 °F 63.0 °F 84% 29.91 in 10.0 mi WSW 12.7 mph - N/A   Clear
7:53 PM 66.9 °F 63.0 °F 87% 29.93 in 10.0 mi WSW 13.8 mph - N/A   Clear
8:53 PM 66.9 °F 62.1 °F 84% 29.94 in 10.0 mi WSW 12.7 mph - N/A   Clear
9:53 PM 66.9 °F 62.1 °F 84% 29.95 in 10.0 mi WSW 11.5 mph - N/A   Clear
10:53 PM 66.9 °F 63.0 °F 87% 29.95 in 10.0 mi WSW 11.5 mph - N/A   Clear
11:53 PM 66.9 °F 64.0 °F 90% 29.95 in 10.0 mi WSW 10.4 mph - N/A   Clear